When you browse on this site, cookies collect data to enhance your experience and personalize the content and advertising you see.
Visit our Privacy Policy to learn more. By continuing to use the site, you agree to this use of cookies and data.
  • In Österreich
  • Länderverzeichnis
  • Für 7 Tage
  • Wassertemperatur
  • Satellitenkarten
  • Wetterkarte
  • News
  • Widgets
  • user-avatar
    Anmelden

    Stündliche Wetter Springville

    Heute, 19 Februar, Dienstag

    Zeit Temperatur Niederschläge Wind Luftdruck Luftfeuchtigkeit
    00:00 -8°C° 0 mm 2 m/S 635 mmHg 87%
    01:00 -7°C° 0 mm 1 m/S 635 mmHg 87%
    02:00 -8°C° 0 mm 1 m/S 635 mmHg 86%
    03:00 -8°C° 0 mm 1 m/S 635 mmHg 86%
    04:00 -8°C° 0 mm 1 m/S 635 mmHg 86%
    05:00 -8°C° 0 mm 2 m/S 635 mmHg 85%
    06:00 -8°C° 0.1 mm 2 m/S 635 mmHg 84%
    07:00 -8°C° 0.1 mm 2 m/S 635 mmHg 84%
    08:00 -8°C° 0.1 mm 2 m/S 635 mmHg 84%
    09:00 -8°C° 0 mm 2 m/S 635 mmHg 78%
    10:00 -7°C° 0 mm 2 m/S 635 mmHg 72%
    11:00 -7°C° 0 mm 2 m/S 635 mmHg 67%
    12:00 -7°C° 0.1 mm 2 m/S 634 mmHg 66%
    13:00 -7°C° 0.1 mm 3 m/S 634 mmHg 65%
    14:00 -7°C° 0.1 mm 3 m/S 634 mmHg 64%
    15:00 -7°C° 0.1 mm 3 m/S 633 mmHg 66%
    16:00 -7°C° 0.1 mm 3 m/S 633 mmHg 67%
    17:00 -8°C° 0.1 mm 3 m/S 633 mmHg 69%
    18:00 -8°C° 0 mm 2 m/S 633 mmHg 72%
    19:00 -8°C° 0 mm 1 m/S 633 mmHg 75%
    20:00 -9°C° 0 mm 1 m/S 633 mmHg 77%
    21:00 -9°C° 0 mm 1 m/S 632 mmHg 79%
    22:00 -10°C° 0 mm 2 m/S 632 mmHg 81%
    23:00 -10°C° 0 mm 2 m/S 632 mmHg 82%

    Morgen, 20 Februar, Mittwoch

    Zeit Temperatur Niederschläge Wind Luftdruck Luftfeuchtigkeit
    00:00 -12°C° 0.1 mm 3 m/S 631 mmHg 83%
    01:00 -13°C° 0.1 mm 3 m/S 631 mmHg 83%
    02:00 -13°C° 0.1 mm 3 m/S 631 mmHg 84%
    03:00 -12°C° 0.1 mm 3 m/S 630 mmHg 84%
    04:00 -12°C° 0.1 mm 3 m/S 630 mmHg 83%
    05:00 -12°C° 0.1 mm 3 m/S 630 mmHg 83%
    06:00 -12°C° 0.1 mm 3 m/S 630 mmHg 83%
    07:00 -9°C° 0.1 mm 2 m/S 629 mmHg 82%
    08:00 -9°C° 0.1 mm 2 m/S 629 mmHg 82%
    09:00 -8°C° 0.1 mm 2 m/S 629 mmHg 77%
    10:00 -6°C° 0.1 mm 2 m/S 629 mmHg 73%
    11:00 -6°C° 0.1 mm 3 m/S 630 mmHg 69%
    12:00 -4°C° 0.1 mm 2 m/S 629 mmHg 69%
    13:00 -4°C° 0.1 mm 2 m/S 629 mmHg 69%
    14:00 -3°C° 0.1 mm 2 m/S 628 mmHg 70%
    15:00 -3°C° 0.2 mm 2 m/S 628 mmHg 73%
    16:00 -1°C° 0.2 mm 1 m/S 628 mmHg 76%
    17:00 -1°C° 0.2 mm 1 m/S 627 mmHg 80%
    18:00 -2°C° 0.2 mm 1 m/S 627 mmHg 82%
    19:00 -3°C° 0.2 mm 1 m/S 628 mmHg 84%
    20:00 -5°C° 0.2 mm 2 m/S 628 mmHg 86%
    21:00 -6°C° 0.1 mm 2 m/S 628 mmHg 85%
    22:00 -6°C° 0.1 mm 2 m/S 627 mmHg 84%
    23:00 -7°C° 0.1 mm 2 m/S 627 mmHg 82%

    übermorgen, 21 Februar, Donnerstag

    Zeit Temperatur Niederschläge Wind Luftdruck Luftfeuchtigkeit
    00:00 -7°C° 0 mm 2 m/S 627 mmHg 81%
    01:00 -7°C° 0 mm 2 m/S 627 mmHg 80%
    02:00 -8°C° 0 mm 2 m/S 627 mmHg 79%
    03:00 -8°C° 0 mm 2 m/S 627 mmHg 78%
    04:00 -8°C° 0 mm 2 m/S 626 mmHg 78%
    05:00 -9°C° 0 mm 2 m/S 626 mmHg 77%
    06:00 -9°C° 0 mm 2 m/S 626 mmHg 77%
    07:00 -10°C° 0 mm 3 m/S 626 mmHg 76%
    08:00 -10°C° 0 mm 3 m/S 626 mmHg 75%
    09:00 -8°C° 0 mm 3 m/S 627 mmHg 71%
    10:00 -6°C° 0 mm 3 m/S 627 mmHg 68%
    11:00 -4°C° 0 mm 3 m/S 628 mmHg 64%
    12:00 -2°C° 0 mm 3 m/S 628 mmHg 63%
    13:00 -1°C° 0 mm 3 m/S 628 mmHg 62%
    14:00 -1°C° 0 mm 3 m/S 628 mmHg 60%
    15:00 -1°C° 0 mm 3 m/S 628 mmHg 63%
    16:00 -1°C° 0 mm 3 m/S 628 mmHg 65%
    17:00 -1°C° 0 mm 3 m/S 627 mmHg 68%
    18:00 -4°C° 0 mm 3 m/S 628 mmHg 71%
    19:00 -5°C° 0 mm 3 m/S 628 mmHg 74%
    20:00 -5°C° 0 mm 2 m/S 628 mmHg 78%
    21:00 -5°C° 0.1 mm 2 m/S 628 mmHg 78%
    22:00 -6°C° 0.1 mm 2 m/S 629 mmHg 78%
    23:00 -6°C° 0.1 mm 2 m/S 629 mmHg 78%

    22 Februar, Freitag

    Zeit Temperatur Niederschläge Wind Luftdruck Luftfeuchtigkeit
    00:00 -6°C° 0.1 mm 2 m/S 629 mmHg 79%
    01:00 -4°C° 0.1 mm 1 m/S 629 mmHg 79%
    02:00 -4°C° 0.1 mm 1 m/S 630 mmHg 79%
    03:00 -6°C° 0 mm 1 m/S 630 mmHg 79%
    04:00 -7°C° 0 mm 1 m/S 630 mmHg 78%
    05:00 -8°C° 0 mm 1 m/S 630 mmHg 78%
    06:00 -8°C° 0 mm 1 m/S 630 mmHg 77%
    07:00 -8°C° 0 mm 1 m/S 631 mmHg 77%
    08:00 -9°C° 0 mm 1 m/S 632 mmHg 76%
    09:00 -7°C° 0 mm 1 m/S 632 mmHg 73%
    10:00 -6°C° 0 mm 1 m/S 633 mmHg 71%
    11:00 -5°C° 0 mm 2 m/S 633 mmHg 68%
    12:00 -4°C° 0 mm 2 m/S 633 mmHg 68%
    13:00 -4°C° 0 mm 2 m/S 633 mmHg 68%
    14:00 -3°C° 0 mm 2 m/S 633 mmHg 67%
    15:00 -3°C° 0 mm 2 m/S 633 mmHg 69%
    16:00 -4°C° 0 mm 2 m/S 633 mmHg 70%
    17:00 -4°C° 0 mm 2 m/S 633 mmHg 71%
    18:00 -3°C° 0 mm 1 m/S 633 mmHg 75%
    19:00 -6°C° 0 mm 1 m/S 633 mmHg 78%
    20:00 -7°C° 0 mm 0 m/S 634 mmHg 82%
    21:00 -7°C° 0 mm 1 m/S 634 mmHg 82%
    22:00 -7°C° 0 mm 1 m/S 635 mmHg 82%
    23:00 -8°C° 0 mm 1 m/S 635 mmHg 82%

    23 Februar, Samstag

    Zeit Temperatur Niederschläge Wind Luftdruck Luftfeuchtigkeit
    00:00 -8°C° 0 mm 1 m/S 635 mmHg 83%
    01:00 -8°C° 0 mm 1 m/S 635 mmHg 83%
    02:00 -8°C° 0 mm 1 m/S 635 mmHg 84%
    03:00 -8°C° 0 mm 1 m/S 635 mmHg 84%
    04:00 -9°C° 0 mm 1 m/S 635 mmHg 84%
    05:00 -9°C° 0 mm 1 m/S 635 mmHg 84%
    06:00 -10°C° 0 mm 2 m/S 636 mmHg 83%
    07:00 -10°C° 0 mm 2 m/S 636 mmHg 81%
    08:00 -10°C° 0 mm 2 m/S 636 mmHg 79%
    09:00 -8°C° 0 mm 2 m/S 636 mmHg 73%
    10:00 -6°C° 0 mm 2 m/S 637 mmHg 67%
    11:00 -4°C° 0 mm 2 m/S 637 mmHg 62%
    12:00 -4°C° 0 mm 3 m/S 636 mmHg 60%
    13:00 -2°C° 0 mm 3 m/S 636 mmHg 58%
    14:00 -1°C° 0 mm 3 m/S 636 mmHg 56%
    15:00 -1°C° 0 mm 3 m/S 635 mmHg 58%
    16:00 -2°C° 0 mm 3 m/S 635 mmHg 60%
    17:00 -2°C° 0 mm 3 m/S 635 mmHg 62%
    18:00 -2°C° 0.1 mm 3 m/S 635 mmHg 66%
    19:00 -4°C° 0.1 mm 3 m/S 635 mmHg 70%
    20:00 -5°C° 0.1 mm 3 m/S 635 mmHg 74%
    21:00 -5°C° 0.2 mm 3 m/S 636 mmHg 77%
    22:00 -4°C° 0.2 mm 4 m/S 636 mmHg 79%
    23:00 -4°C° 0.2 mm 4 m/S 636 mmHg 82%

    24 Februar, Sonntag

    Zeit Temperatur Niederschläge Wind Luftdruck Luftfeuchtigkeit
    00:00 -4°C° 0.2 mm 4 m/S 636 mmHg 81%
    01:00 -4°C° 0.2 mm 4 m/S 636 mmHg 81%
    02:00 -5°C° 0.2 mm 4 m/S 636 mmHg 81%
    03:00 -5°C° 0.3 mm 4 m/S 636 mmHg 81%
    04:00 -5°C° 0.3 mm 4 m/S 636 mmHg 82%
    05:00 -5°C° 0.3 mm 4 m/S 636 mmHg 83%
    06:00 -5°C° 0.2 mm 4 m/S 637 mmHg 82%
    07:00 -5°C° 0.2 mm 3 m/S 637 mmHg 82%
    08:00 -5°C° 0.2 mm 3 m/S 637 mmHg 81%
    09:00 -4°C° 0.1 mm 3 m/S 637 mmHg 78%
    10:00 -2°C° 0.1 mm 3 m/S 637 mmHg 75%
    11:00 -1°C° 0.1 mm 3 m/S 637 mmHg 72%
    12:00 -2°C° 0.1 mm 4 m/S 637 mmHg 69%
    13:00 -1°C° 0.1 mm 4 m/S 636 mmHg 66%
    14:00 0°C° 0.1 mm 4 m/S 636 mmHg 63%
    15:00 +1°C° 0 mm 3 m/S 635 mmHg 63%
    16:00 +1°C° 0 mm 3 m/S 635 mmHg 64%
    17:00 +1°C° 0 mm 2 m/S 635 mmHg 64%
    18:00 -1°C° 0 mm 2 m/S 635 mmHg 66%
    19:00 -2°C° 0 mm 2 m/S 634 mmHg 68%
    20:00 -4°C° 0 mm 2 m/S 634 mmHg 69%
    21:00 -4°C° 0 mm 2 m/S 634 mmHg 69%
    22:00 -5°C° 0 mm 2 m/S 634 mmHg 68%
    23:00 -5°C° 0 mm 2 m/S 634 mmHg 68%
    Mehr zeigen